EW5171 Weather Reports


Display with metric or nautical units.
time (UTC)temp
F
wind
direction
speed
MPH
gust
MPH
rain 1hr
in
rain 24hr
in
rain mn
in
humidity
%
barometer
mb
20260507124506 57 116 1.0 7.0 0.00 0.00 0.00 67 1017.8
20260507124002 57 49 1.0 7.0 0.00 0.00 0.00 67 1017.8
20260507123502 57 123 2.0 6.0 0.00 0.00 0.00 66 1017.8
20260507123002 58 157 1.0 8.0 0.00 0.00 0.00 67 1017.9
20260507122600 57 49 1.0 8.0 0.00 0.00 0.00 67 1017.9
20260507122059 58 197 2.0 6.0 0.00 0.00 0.00 65 1017.8
20260507121607 58 96 1.0 5.0 0.00 0.00 0.00 65 1017.8
20260507121058 57 54 1.0 10.0 0.00 0.00 0.00 66 1017.7
20260507120602 57 170 3.0 10.0 0.00 0.00 0.00 65 1017.7
20260507115556 59 167 2.0 7.0 0.00 0.00 0.00 64 1017.6
20260507115055 58 24 2.0 4.0 0.00 0.00 0.00 62 1017.6
20260507114612 57 20 2.0 4.0 0.00 0.00 0.00 64 1017.7
20260507114055 56 121 2.0 8.0 0.00 0.00 0.00 64 1017.7
20260507113555 56 183 2.0 8.0 0.00 0.00 0.00 64 1017.7
20260507113054 56 113 1.0 6.0 0.00 0.00 0.00 66 1017.7
20260507112557 55 217 2.0 6.0 0.00 0.00 0.00 67 1017.7
20260507112057 55 140 2.0 8.0 0.00 0.00 0.00 67 1017.6
20260507111559 55 184 3.0 8.0 0.00 0.00 0.00 67 1017.7
20260507111052 54 168 2.0 6.0 0.00 0.00 0.00 68 1017.7
20260507110552 54 206 1.0 6.0 0.00 0.00 0.00 69 1017.7
20260507110054 54 171 1.0 6.0 0.00 0.00 0.00 67 1017.6
20260507105551 54 94 1.0 4.0 0.00 0.00 0.00 67 1017.6
20260507105051 54 45 0.0 6.0 0.00 0.00 0.00 68 1017.6
20260507104552 54 118 1.0 6.0 0.00 0.00 0.00 67 1017.6
20260507104051 55 165 1.0 7.0 0.00 0.00 0.00 67 1017.6
20260507103550 56 100 1.0 6.0 0.00 0.00 0.00 66 1017.6
20260507103050 56 51 1.0 7.0 0.00 0.00 0.00 65 1017.5
20260507102549 57 95 1.0 5.0 0.00 0.00 0.00 65 1017.5
20260507102049 57 78 1.0 5.0 0.00 0.00 0.00 63 1017.4
20260507101547 58 313 0.0 3.0 0.00 0.00 0.00 64 1017.4
20260507101049 58 40 1.0 4.0 0.00 0.00 0.00 62 1017.4
20260507100547 59 327 1.0 4.0 0.00 0.00 0.00 61 1017.2
20260507100045 59 113 1.0 4.0 0.00 0.00 0.00 61 1017.2
20260507095546 59 86 2.0 6.0 0.00 0.00 0.00 60 1017.2
20260507095044 59 53 2.0 7.0 0.00 0.00 0.00 59 1017.2
20260507094544 58 79 1.0 7.0 0.00 0.00 0.00 61 1017.1
20260507094042 58 27 3.0 7.0 0.00 0.00 0.00 60 1017.0
20260507093542 59 43 2.0 6.0 0.00 0.00 0.00 59 1016.9
20260507093048 59 61 2.0 6.0 0.00 0.00 0.00 60 1016.9
20260507092539 58 106 1.0 6.0 0.00 0.00 0.00 60 1016.8
20260507092038 58 44 2.0 4.0 0.00 0.00 0.00 59 1016.8
20260507091538 58 103 2.0 5.0 0.00 0.00 0.00 59 1016.8
20260507091038 58 28 2.0 5.0 0.00 0.00 0.00 61 1016.8
20260507090537 58 57 2.0 5.0 0.00 0.00 0.00 61 1016.8
20260507090038 58 137 2.0 6.0 0.00 0.00 0.00 62 1016.8
20260507085533 57 88 1.0 5.0 0.00 0.00 0.00 62 1016.7
20260507085032 56 146 2.0 5.0 0.00 0.00 0.00 60 1016.7
20260507084531 56 158 1.0 5.0 0.00 0.00 0.00 60 1016.8
20260507084029 55 76 1.0 5.0 0.00 0.00 0.00 60 1016.8
20260507083528 55 248 2.0 7.0 0.00 0.00 0.00 58 1016.7
20260507083027 54 209 3.0 7.0 0.00 0.00 0.00 58 1016.7
20260507082524 54 265 2.0 6.0 0.00 0.00 0.00 58 1016.6
20260507082023 54 188 1.0 9.0 0.00 0.00 0.00 60 1016.5
20260507081535 54 209 3.0 6.0 0.00 0.00 0.00 57 1016.5
20260507081021 54 205 2.0 6.0 0.00 0.00 0.00 57 1016.4
20260507080522 54 198 0.0 5.0 0.00 0.00 0.00 59 1016.4
20260507080019 54 262 2.0 7.0 0.00 0.00 0.00 62 1016.4
20260507075521 54 177 4.0 7.0 0.00 0.00 0.00 61 1016.4
20260507075017 53 196 2.0 6.0 0.00 0.00 0.00 60 1016.4
20260507074524 53 42 2.0 6.0 0.00 0.00 0.00 62 1016.3
20260507074013 53 312 2.0 4.0 0.00 0.00 0.00 66 1016.3
20260507073514 52 167 1.0 7.0 0.00 0.00 0.00 67 1016.2
20260507073012 52 277 3.0 7.0 0.00 0.00 0.00 68 1016.2
20260507072510 52 140 1.0 6.0 0.00 0.00 0.00 69 1016.2
20260507072008 52 55 2.0 6.0 0.00 0.00 0.00 72 1016.3
20260507071508 52 294 1.0 5.0 0.00 0.00 0.00 75 1016.3
20260507071006 51 213 1.0 6.0 0.00 0.00 0.00 76 1016.2
20260507070505 51 272 1.0 6.0 0.00 0.00 0.00 76 1016.2
20260507070008 51 259 2.0 5.0 0.00 0.00 0.00 77 1016.2
20260507065502 51 255 2.0 4.0 0.00 0.00 0.00 78 1016.2
20260507065003 50 273 1.0 4.0 0.00 0.00 0.00 80 1016.0
20260507064600 50 251 1.0 4.0 0.00 0.00 0.00 80 1016.0
20260507064058 49 204 0.0 4.0 0.00 0.00 0.00 82 1016.1
20260507063557 49 46 1.0 5.0 0.00 0.00 0.00 83 1016.0
20260507063057 48 251 0.0 3.0 0.00 0.00 0.00 84 1016.0
20260507062554 48 280 1.0 4.0 0.00 0.00 0.00 85 1016.0
20260507062052 47 136 2.0 4.0 0.00 0.00 0.00 87 1016.0
20260507061551 47 218 0.0 7.0 0.00 0.00 0.00 88 1015.8
20260507061050 46 198 2.0 7.0 0.00 0.00 0.00 89 1015.8
20260507060548 45 202 1.0 4.0 0.00 0.00 0.00 91 1015.7
20260507060046 45 233 1.0 4.0 0.00 0.00 0.00 92 1015.6
20260507055545 44 224 2.0 4.0 0.00 0.00 0.00 93 1015.6
20260507055047 43 225 0.0 3.0 0.00 0.00 0.00 94 1015.5
20260507054600 42 225 0.0 2.0 0.00 0.00 0.00 95 1015.6
20260507054040 42 225 0.0 4.0 0.00 0.00 0.00 95 1015.5
20260507053539 41 225 2.0 4.0 0.00 0.00 0.00 95 1015.5
20260507053037 39 265 0.0 0.0 0.00 0.00 0.00 95 1015.5
20260507052536 39 265 0.0 1.0 0.00 0.00 0.00 95 1015.4
20260507052035 38 265 0.0 1.0 0.00 0.00 0.00 95 1015.4
20260507051535 37 265 0.0 1.0 0.00 0.00 0.00 95 1015.4
20260507051035 36 265 0.0 1.0 0.00 0.00 0.00 95 1015.4
20260507050532 36 265 0.0 0.0 0.00 0.00 0.00 94 1015.4
20260507050033 35 184 0.0 0.0 0.00 0.00 0.00 94 1015.4
20260507045532 35 184 0.0 0.0 0.00 0.00 0.00 94 1015.3
20260507045030 35 184 0.0 0.0 0.00 0.00 0.00 94 1015.3
20260507044531 34 184 0.0 0.0 0.00 0.00 0.00 93 1015.2
20260507044030 34 184 0.0 0.0 0.00 0.00 0.00 93 1015.2
20260507043529 34 184 0.0 0.0 0.00 0.00 0.00 93 1015.1
20260507043028 34 184 0.0 0.0 0.00 0.00 0.00 93 1015.1
20260507042527 34 184 0.0 0.0 0.00 0.00 0.00 93 1015.0
20260507042026 33 184 0.0 0.0 0.00 0.00 0.00 93 1015.0
20260507041525 33 184 0.0 0.0 0.00 0.00 0.00 93 1014.9
20260507041025 33 184 0.0 0.0 0.00 0.00 0.00 93 1014.9
20260507040525 33 184 0.0 0.0 0.00 0.00 0.00 93 1014.9
20260507040023 33 184 0.0 0.0 0.00 0.00 0.00 92 1014.9
20260507035523 33 184 0.0 0.0 0.00 0.00 0.00 92 1014.8
20260507035023 33 184 0.0 0.0 0.00 0.00 0.00 92 1014.9
20260507034522 33 184 0.0 0.0 0.00 0.00 0.00 92 1014.9
20260507034023 33 184 0.0 0.0 0.00 0.00 0.00 92 1014.8
20260507033521 33 184 0.0 0.0 0.00 0.00 0.00 92 1014.8
20260507033023 32 184 0.0 0.0 0.00 0.00 0.00 92 1014.8
20260507032519 33 184 0.0 0.0 0.00 0.00 0.00 92 1014.7
20260507032023 33 184 0.0 0.0 0.00 0.00 0.00 92 1014.8
20260507031518 33 184 0.0 0.0 0.00 0.00 0.00 91 1014.7
20260507031020 33 184 0.0 0.0 0.00 0.00 0.00 91 1014.7
20260507030518 33 184 0.0 0.0 0.00 0.00 0.00 91 1014.7
20260507030017 33 184 0.0 0.0 0.00 0.00 0.00 91 1014.7
20260507025516 33 184 0.0 0.0 0.00 0.00 0.00 91 1014.6
20260507025015 33 184 0.0 0.0 0.00 0.00 0.00 91 1014.6
20260507024515 33 184 0.0 0.0 0.00 0.00 0.00 91 1014.6
20260507024016 33 184 0.0 0.0 0.00 0.00 0.00 91 1014.5
20260507023514 33 184 0.0 0.0 0.00 0.00 0.00 91 1014.5
20260507023013 33 184 0.0 0.0 0.00 0.00 0.00 91 1014.4
20260507022512 33 184 0.0 0.0 0.00 0.00 0.00 91 1014.4
20260507022012 33 184 0.0 0.0 0.00 0.00 0.00 90 1014.4
20260507021510 34 184 0.0 0.0 0.00 0.00 0.00 91 1014.3
20260507021010 34 184 0.0 0.0 0.00 0.00 0.00 90 1014.3
20260507020509 34 184 0.0 0.0 0.00 0.00 0.00 90 1014.3
20260507020011 34 184 0.0 0.0 0.00 0.00 0.00 90 1014.3
20260507015508 34 184 0.0 0.0 0.00 0.00 0.00 90 1014.3
20260507015008 34 184 0.0 0.0 0.00 0.00 0.00 90 1014.3
20260507014508 34 184 0.0 0.0 0.00 0.00 0.00 90 1014.3
20260507014008 34 184 0.0 0.0 0.00 0.00 0.00 90 1014.2
20260507013507 34 184 0.0 0.0 0.00 0.00 0.00 89 1014.2
20260507013006 34 184 0.0 0.0 0.00 0.00 0.00 90 1014.1
20260507012505 34 184 0.0 0.0 0.00 0.00 0.00 90 1014.2
20260507012008 34 184 0.0 0.0 0.00 0.00 0.00 90 1014.2
20260507011505 34 184 0.0 0.0 0.00 0.00 0.00 89 1014.1
20260507011007 34 184 0.0 0.0 0.00 0.00 0.00 89 1014.2
20260507010504 34 184 0.0 0.0 0.00 0.00 0.00 89 1014.2
20260507010005 35 184 0.0 0.0 0.00 0.00 0.00 89 1014.1
20260507005502 35 184 0.0 0.0 0.00 0.00 0.00 89 1014.2
20260507005003 35 184 0.0 0.0 0.00 0.00 0.00 88 1014.1
20260507004600 36 184 0.0 0.0 0.00 0.00 0.00 89 1014.0
20260507004059 36 184 0.0 0.0 0.00 0.00 0.00 89 1014.1
20260507003559 36 184 0.0 0.0 0.00 0.00 0.00 88 1014.0
20260507003058 36 184 0.0 0.0 0.00 0.00 0.00 89 1014.0
20260507002558 36 184 0.0 0.0 0.00 0.00 0.00 89 1014.0
20260507002057 36 184 0.0 0.0 0.00 0.00 0.00 89 1014.1
20260507001604 36 184 0.0 0.0 0.00 0.00 0.00 88 1014.0
20260507001056 36 184 0.0 0.0 0.00 0.00 0.00 88 1014.0
20260507000556 36 184 0.0 0.0 0.00 0.00 0.00 87 1014.0
20260507000056 36 184 0.0 0.0 0.00 0.00 0.00 87 1013.9
20260506235558 36 184 0.0 0.0 0.00 0.00 0.00 87 1013.9
20260506235055 36 184 0.0 0.0 0.00 0.00 0.00 87 1013.9
20260506234556 36 184 0.0 0.0 0.00 0.00 0.00 87 1013.9
20260506234054 36 184 0.0 0.0 0.00 0.00 0.00 86 1013.9
20260506233554 36 184 0.0 0.0 0.00 0.00 0.00 86 1013.9
20260506233109 37 184 0.0 0.0 0.00 0.00 0.00 85 1014.0
20260506232551 37 184 0.0 0.0 0.00 0.00 0.00 85 1014.0
20260506232050 37 184 0.0 0.0 0.00 0.00 0.00 86 1014.1
20260506231550 37 184 0.0 0.0 0.00 0.00 0.00 86 1014.1
20260506231051 37 184 0.0 0.0 0.00 0.00 0.00 85 1014.0
20260506230548 37 184 0.0 0.0 0.00 0.00 0.00 84 1013.9
20260506230048 38 184 0.0 0.0 0.00 0.00 0.00 84 1013.9
20260506225546 38 184 0.0 0.0 0.00 0.00 0.00 83 1013.8
20260506225046 38 184 0.0 0.0 0.00 0.00 0.00 83 1013.7
20260506224546 38 184 0.0 0.0 0.00 0.00 0.00 83 1013.7
20260506224044 38 184 0.0 0.0 0.00 0.00 0.00 83 1013.7
20260506223546 38 184 0.0 0.0 0.00 0.00 0.00 82 1013.7
20260506223046 38 184 0.0 0.0 0.00 0.00 0.00 82 1013.7
20260506222543 39 184 0.0 0.0 0.00 0.00 0.00 82 1013.6
20260506222042 39 184 0.0 0.0 0.00 0.00 0.00 81 1013.6
20260506221540 39 184 0.0 0.0 0.00 0.00 0.00 80 1013.7
20260506221039 39 184 0.0 0.0 0.00 0.00 0.00 80 1013.6
20260506220538 40 184 0.0 0.0 0.00 0.00 0.00 80 1013.7
20260506220037 40 184 0.0 0.0 0.00 0.00 0.00 80 1013.7
20260506215539 41 184 0.0 0.0 0.00 0.00 0.00 80 1013.6
20260506215036 41 184 0.0 0.0 0.00 0.00 0.00 79 1013.6
20260506214536 41 184 0.0 0.0 0.00 0.00 0.00 79 1013.5
20260506214035 41 184 0.0 0.0 0.00 0.00 0.00 79 1013.5
20260506213535 41 184 0.0 0.0 0.00 0.00 0.00 78 1013.5
20260506213035 42 184 0.0 0.0 0.00 0.00 0.00 78 1013.4
20260506212534 42 184 0.0 0.0 0.00 0.00 0.00 78 1013.4
20260506212038 42 184 0.0 0.0 0.00 0.00 0.00 77 1013.4
20260506211535 43 57 0.0 0.0 0.00 0.00 0.00 78 1013.4
20260506211033 43 57 0.0 0.0 0.00 0.00 0.00 77 1013.4
20260506210533 43 57 0.0 0.0 0.00 0.00 0.00 77 1013.4
20260506210033 44 57 0.0 0.0 0.00 0.00 0.00 76 1013.3
20260506205535 44 57 0.0 0.0 0.00 0.00 0.00 76 1013.3
20260506205034 44 57 0.0 0.0 0.00 0.00 0.00 76 1013.3
20260506204531 45 57 0.0 0.0 0.00 0.00 0.00 76 1013.2
20260506204033 45 57 0.0 0.0 0.00 0.00 0.00 75 1013.2
20260506203530 45 57 0.0 0.0 0.00 0.00 0.00 75 1013.2
20260506203030 45 57 0.0 0.0 0.00 0.00 0.00 75 1013.2
20260506202529 45 57 0.0 0.0 0.00 0.00 0.00 74 1013.1
20260506202029 46 57 0.0 0.0 0.00 0.00 0.00 74 1013.1
20260506201530 46 57 0.0 0.0 0.00 0.00 0.00 73 1013.1
20260506201029 46 57 0.0 1.0 0.00 0.00 0.00 72 1013.0
20260506200531 47 57 0.0 2.0 0.00 0.00 0.00 72 1013.0
20260506200028 47 57 0.0 2.0 0.00 0.00 0.00 71 1013.0
20260506195527 48 57 0.0 1.0 0.00 0.00 0.00 70 1013.0
20260506195027 48 57 0.0 1.0 0.00 0.00 0.00 70 1012.9
20260506194527 48 57 0.0 2.0 0.00 0.00 0.00 69 1013.0
20260506194028 49 57 0.0 2.0 0.00 0.00 0.00 69 1012.9
20260506193526 49 57 0.0 2.0 0.00 0.00 0.00 68 1012.9
20260506193028 49 57 0.0 2.0 0.00 0.00 0.00 67 1012.8
20260506192528 49 57 0.0 2.0 0.00 0.00 0.00 66 1012.8
20260506192024 50 57 0.0 2.0 0.00 0.00 0.00 66 1012.7
20260506191525 50 26 0.0 1.0 0.00 0.00 0.00 66 1012.7
20260506191024 50 26 0.0 1.0 0.00 0.00 0.00 65 1012.6
20260506190523 51 26 0.0 0.0 0.00 0.00 0.00 64 1012.5
20260506190023 51 26 0.0 0.0 0.00 0.00 0.00 63 1012.5
20260506185524 51 26 0.0 1.0 0.00 0.00 0.00 62 1012.5
20260506185023 51 26 0.0 1.0 0.00 0.00 0.00 61 1012.4
20260506184523 52 26 0.0 1.0 0.00 0.00 0.00 59 1012.3
20260506184023 52 26 0.0 0.0 0.00 0.00 0.00 58 1012.3
20260506183523 52 26 0.0 0.0 0.00 0.00 0.00 58 1012.3
20260506183023 52 26 0.0 0.0 0.00 0.00 0.00 58 1012.2
20260506182522 53 26 0.0 1.0 0.00 0.00 0.00 58 1012.2
20260506182023 53 26 0.0 1.0 0.00 0.00 0.00 56 1012.1
20260506181521 54 26 0.0 0.0 0.00 0.00 0.00 55 1012.0
20260506181021 54 26 0.0 1.0 0.00 0.00 0.00 53 1012.0
20260506180521 54 26 0.0 1.0 0.00 0.00 0.00 52 1011.9
20260506180021 54 26 0.0 2.0 0.00 0.00 0.00 52 1011.9
20260506175520 54 26 0.0 4.0 0.00 0.00 0.00 50 1011.9
20260506175023 55 16 1.0 4.0 0.00 0.00 0.00 48 1011.8
20260506174521 55 65 0.0 2.0 0.00 0.00 0.00 46 1011.7
20260506174024 55 211 0.0 3.0 0.00 0.00 0.00 47 1011.7
20260506173520 56 54 0.0 3.0 0.00 0.00 0.00 45 1011.7
20260506173020 56 54 1.0 3.0 0.00 0.00 0.00 46 1011.7
20260506172520 56 54 0.0 2.0 0.00 0.00 0.00 44 1011.7
20260506172019 56 44 0.0 2.0 0.00 0.00 0.00 43 1011.6
20260506171521 56 55 0.0 3.0 0.00 0.00 0.00 41 1011.6
20260506171019 56 55 1.0 3.0 0.00 0.00 0.00 42 1011.6
20260506170519 56 18 0.0 2.0 0.00 0.00 0.00 41 1011.6
20260506170021 56 57 0.0 3.0 0.00 0.00 0.00 41 1011.6
20260506165519 56 51 1.0 4.0 0.00 0.00 0.00 39 1011.5
20260506165018 57 51 2.0 4.0 0.00 0.00 0.00 38 1011.5
20260506164518 58 58 1.0 4.0 0.00 0.00 0.00 38 1011.5
20260506164017 58 33 0.0 4.0 0.00 0.00 0.00 39 1011.5
20260506163517 58 128 1.0 4.0 0.00 0.00 0.00 39 1011.5
20260506163031 58 355 0.0 3.0 0.00 0.00 0.00 38 1011.5
20260506162521 58 55 1.0 4.0 0.00 0.00 0.00 39 1011.5
20260506162017 59 113 1.0 5.0 0.00 0.00 0.00 39 1011.5
20260506161516 59 69 2.0 5.0 0.00 0.00 0.00 38 1011.5
20260506161016 59 20 0.0 2.0 0.00 0.00 0.00 38 1011.4
20260506160516 59 42 0.0 5.0 0.00 0.00 0.00 37 1011.4
20260506160117 58 42 0.0 5.0 0.00 0.00 0.00 40 1011.4
20260506155515 58 265 1.0 5.0 0.00 0.00 0.00 39 1011.4
20260506155016 59 84 2.0 5.0 0.00 0.00 0.00 38 1011.4
20260506154515 59 38 2.0 5.0 0.00 0.00 0.00 38 1011.4
20260506154115 59 350 1.0 6.0 0.00 0.00 0.00 39 1011.4
20260506153514 59 333 1.0 4.0 0.00 0.00 0.00 40 1011.4
20260506153015 58 74 2.0 7.0 0.00 0.00 0.00 40 1011.4
20260506152514 59 71 3.0 7.0 0.00 0.00 0.00 37 1011.4
20260506152019 59 40 2.0 6.0 0.00 0.00 0.00 39 1011.5
20260506151512 58 39 2.0 6.0 0.00 0.00 0.00 38 1011.4
20260506151013 58 33 1.0 5.0 0.00 0.00 0.00 41 1011.5
20260506150514 57 44 2.0 6.0 0.00 0.00 0.00 40 1011.5
20260506150012 58 34 4.0 7.0 0.00 0.00 0.00 39 1011.5
20260506145515 58 348 2.0 9.0 0.00 0.00 0.00 39 1011.6
20260506145013 58 67 2.0 7.0 0.00 0.00 0.00 40 1011.5
20260506144512 58 57 2.0 7.0 0.00 0.00 0.00 39 1011.6
20260506144012 58 46 2.0 7.0 0.00 0.00 0.00 40 1011.5
20260506143512 59 53 4.0 7.0 0.00 0.00 0.00 38 1011.6
20260506143011 59 81 2.0 7.0 0.00 0.00 0.00 41 1011.6
20260506142510 59 40 2.0 5.0 0.00 0.00 0.00 41 1011.6
20260506142011 58 17 2.0 5.0 0.00 0.00 0.00 41 1011.6
20260506141510 58 348 2.0 9.0 0.00 0.00 0.00 40 1011.8
20260506141010 58 59 3.0 9.0 0.00 0.00 0.00 39 1011.7
20260506140510 58 67 2.0 8.0 0.00 0.00 0.00 42 1011.7
20260506140010 58 119 2.0 8.0 0.00 0.00 0.00 41 1011.6
20260506135510 58 325 3.0 9.0 0.00 0.00 0.00 41 1011.7
20260506135011 58 45 3.0 9.0 0.00 0.00 0.00 43 1011.8
20260506134509 59 72 3.0 6.0 0.00 0.00 0.00 41 1011.8
20260506134011 59 164 2.0 9.0 0.00 0.00 0.00 41 1011.8
20260506133508 59 26 3.0 9.0 0.00 0.00 0.00 40 1011.8
20260506133008 58 71 2.0 9.0 0.00 0.00 0.00 39 1011.7
20260506132508 58 328 2.0 9.0 0.00 0.00 0.00 39 1011.8
20260506132007 58 75 4.0 10.0 0.00 0.00 0.00 37 1011.8
20260506131513 58 34 3.0 10.0 0.00 0.00 0.00 38 1011.8
20260506131007 59 35 4.0 9.0 0.00 0.00 0.00 37 1011.8
20260506130509 59 57 2.0 8.0 0.00 0.00 0.00 39 1011.8
20260506130007 59 17 2.0 8.0 0.00 0.00 0.00 39 1011.8
20260506125505 59 346 1.0 6.0 0.00 0.00 0.00 38 1011.8
20260506125005 59 39 2.0 6.0 0.00 0.00 0.00 39 1011.8